Regional Weather Roundup
Issued by NWS

Home | Current Version | Previous Version | Text Only | Print | Product List | Glossary Off
Versions: 1 2 3 4 5 6 7 8 9 10 11 12 13 14 15 16 17 18 19 20 21 22 23 24 25 26 27 28 29 30 31 32 33 34 35 36 37 38 39 40 41 42 43 44 45 46 47 48 49 50

536
ASUS43 KFSD 081602
RWRSD

WEATHER ROUNDUP FOR SOUTH DAKOTA
NATIONAL WEATHER SERVICE SIOUX FALLS SD
1000 AM CST MON FEB 08 2016

NOTE: "FAIR" INDICATES FEW OR NO CLOUDS BELOW 12,000 FEET WITH NO
SIGNIFICANT WEATHER AND/OR OBSTRUCTIONS TO VISIBILITY.


SDZ001>005-009-010-012>017-081700-
NORTHWEST AND NORTH CENTRAL SOUTH DAKOTA

CITY           SKY/WX    TMP DP  RH WIND       PRES   REMARKS
BUFFALO          N/A     28  14  55 W17       30.29S WCI  16
FAITH            N/A     26  14  60 NW23      30.31F WCI  11
MOBRIDGE       SUNNY     29  18  63 NW18G26   30.25R WCI  16
$$

SDZ012>016-024>037-041>051-057-063-072>074-081700-
SOUTHWEST AND SOUTH CENTRAL SOUTH DAKOTA

CITY           SKY/WX    TMP DP  RH WIND       PRES   REMARKS
RAPID CTY ARPT CLOUDY    33  10  38 NW30G38   30.33S WCI  19
PIERRE         SUNNY     28  18  66 NW25G33   30.28R WCI  13
CUSTER         CLOUDY    28  -1  28 NW13G29   30.26R WCI  17
ELLSWORTH AFB  CLOUDY    32  10  38 NW32G38   30.30F WCI  18
PHILIP         SUNNY     29  16  58 NW23G33   30.34S WCI  15
PINE RIDGE     CLOUDY    26  15  63 NW8       30.38R WCI  18
WINNER         FAIR      30  17  58 NW30G36   30.28R WCI  15
$$

SDZ004>011-016>023-039-040-081700-
NORTHEAST SOUTH DAKOTA

CITY           SKY/WX    TMP DP  RH WIND       PRES   REMARKS
ABERDEEN       MOSUNNY   25  13  60 N31G38    30.22R WCI   8
WATERTOWN      FLURRIES  17  10  74 N24G36    30.09R WCI  -1
BROOKINGS      LGT SNOW  17  12  80 N28G38    30.07R WCI  -2
SISSETON         N/A     16  12  84 N23G32    30.14R WCI  -2
$$

SDZ017-020-022-023-036>040-048>070-081700-
SOUTHEAST SOUTH DAKOTA

CITY           SKY/WX    TMP DP  RH WIND       PRES   REMARKS
SIOUX FALLS    LGT SNOW  20  13  74 N24G44    30.10R BLWGSNOWWCI   3
HURON          CLOUDY    24  16  71 N24G32    30.20R WCI   8
MITCHELL       CLOUDY    27  17  66 N29G39    30.20R WCI  11
YANKTON        PTSUNNY   27  16  63 N31G37    30.16R WCI  10
$$

ABBREVIATIONS USED IN REMARKS
   TC - TEMPERATURE IN CELSIUS
  WCI - WIND CHILL INDEX
   HX - HEAT INDEX
  VSB - VISIBILITY





USA.gov is the U.S. government's official web portal to all federal, state and local government web resources and services.